Location: Il Ritiro
(43.4167°N, 13.1333°E)
Time: 07:53:30
(UTC+00:00)

CARTOSAT-1 - Pass Details

Date: 05 July 2020
Orbit: 617 x 618 km, 97.8° (Epoch: 05 August)

Event Time Altitude Azimuth Distance (km) Brightness Sun altitude
Exits shadow 20:32:56 24° 153° (SSE) 1,299 4.6 -14.5°
Maximum altitude 20:35:30 70° 75° (ENE) 662 3.6 -14.7°
Drops below altitude 10° 20:39:48 10° 352° (N) 1,991 7.1 -15.2°
Sets 20:42:00 0° 350° (N) 2,901 8.2 -15.4°
